www.pogodaiklimat.ru

Погода и климат >> Архив погоды >> Ямайка >> Kingston


АРХИВ ПОГОДЫ в Kingston

Время (UTC), дата Ветер
(напр.,м/с)
 
Видим.   Явления Облачность Т
(С)
Тd
(С)
f
(%)
Тe
(С)
Тes
(С)
Комфортность P
(гПа)
Po
(гПа)
Тmin
(С)
Tmax
(С)
R
(мм)
R24
(мм)
S
(см)
06 20.05 ЮВ 6 18 км мгла 8/1 600 м
[Cu Sc Ac As Ci sp]
+27.3 +23.0 77 +36 +36 очень
душно
1013.0 1012.8 +23.6 +29.8
09 20.05 ЮВ 7 18 км мгла 9/1 600 м
[Cu Sc Ac As Ci sp]
+27.2 +24.6 86 +39 +39 очень
душно
1012.3 1012.1
12 20.05 В 7 9000 м мгла 9/1 600 м
[Cu Sc Ac As Ci sp]
+27.7 +22.0 71 +36 +36 очень
душно
1013.6 1013.4 +26.7 +29.8
15 20.05 ЮВ 9 22 км мгла 9/1 660 м
[Cu Sc Cs]
+31.0 +25.0 70 +44 +45 опасность
перегрева
1013.4 1013.2
18 20.05 ЮВ 11 20 км осадки на расстоянии 9/1 600 м
[Cu Sc Ac trans Cs]
+29.8 +24.4 73 +42 +42 опасность
перегрева
1012.3 1012.1 +26.7 +31.0
21 20.05 В 9 18 км осадки на расстоянии {ливн. осадки} 9/5 600 м
[Cb cap Ac lent Cs]
+28.0 +24.2 80 +39 +39 очень
душно
1012.0 1011.8
00 21.05 ЮВ 7 20 км осадки на расстоянии {ливн. осадки} 9/3 600 м
[Cb cap Ac lent Cs]
+28.1 +23.2 75 +38 +38 очень
душно
1012.8 1012.6 +26.7 +31.0 0.0
03 21.05 ЮВ 7 20 км мгла {ливн. осадки} 8/3 600 м
[Cb cap Cs]
+27.2 +25.9 93 +41 +41 опасность
перегрева
1014.0 1013.8
06 21.05 В 5 20 км мгла {ливн. осадки} 3/1 600 м
[Cu Sc Ac As Cs]
+27.2 +23.3 79 +37 +37 очень
душно
1012.4 1012.2 +25.5 +31.0 0.1
09 21.05 ЮВ 5 20 км мгла 9/1 600 м
[Cu Sc Ac As]
+27.0 +25.1 89 +39 +39 очень
душно
1011.9 1011.7
12 21.05 ЮВ 6 15 км мгла {ливн. осадки} 9/1 540 м
[Cu med, cong Ac As]
+27.7 +23.3 77 +37 +38 очень
душно
1012.8 1012.6 +25.5 +31.0 0.0
15 21.05 ЮВ 8 15 км осадки на расстоянии 6/3 600 м
[Cb cap Ac As Ci sp]
+29.7 +26.5 83 +46 +47 опасность
перегрева
1013.6 1013.4
18 21.05 ЮВ 11 18 км осадки на расстоянии 5/4 600 м
[Cb cap Ac cuf Ci ing]
+30.3 +24.4 71 +43 +43 опасность
перегрева
1012.4 1012.2 +25.5 +31.2
21 21.05 ЮВ 11 15 км осадки на расстоянии 8/6 600 м
[Cb cap Ac cuf Ci ing]
+29.5 +26.0 81 +44 +44 опасность
перегрева
1011.4 1011.2
00 22.05 ЮВ 9 18 км осадки на расстоянии {ливн. осадки} 9/4 600 м
[Cb cap Ac lent Ci sp]
+28.0 +24.3 80 +39 +39 очень
душно
1012.6 1012.4 +26.5 +31.2 0.0
03 22.05 ЮВ 7 22 км мгла 9/3 660 м
[Cu Sc Ac trans Ci sp]
+27.4 +26.4 94 +42 +42 опасность
перегрева
1013.6 1013.4
06 22.05 ЮВ 7 22 км мгла 8/1 660 м
[Cu Sc Ci sp]
+27.3 +23.6 80 +37 +37 очень
душно
1012.4 1012.2 +26.5 +31.2
09 22.05 ЮВ 6 22 км мгла {ливн. осадки} 8/3 660 м
[Cu Sc Ci sp]
+26.4 +25.8 97 +39 +39 очень
душно
1011.8 1011.6
12 22.05 ЮВ 7 22 км мгла {ливн. осадки} 4/3 660 м
[Cu Sc Ac trans Ci sp]
+27.5 +23.8 80 +38 +38 очень
душно
1013.3 1013.1 +24.9 +31.2 1
15 22.05 ЮВ 11 18 км мгла 9/3 600 м
[Cb cap Ac trans Cs]
+30.0 +26.0 79 +45 +45 опасность
перегрева
1014.0 1013.8
18 22.05 ЮВ 11 20 км мгла 9/3 600 м
[Cb cap Ac trans Ci ing]
+30.7 +24.5 70 +43 +43 опасность
перегрева
1013.3 1013.1 +24.9 +31.1
21 22.05 ЮВ 11 18 км мгла 9/3 540 м
[Cb cap Ac trans Cs]
+29.4 +25.6 80 +43 +43 опасность
перегрева
1011.5 1011.3
00 23.05 ЮВ 8 15 км мгла 9/3 540 м
[Cb cap Ac trans Cs]
+28.3 +23.2 74 +38 +38 очень
душно
1013.0 1012.8 +24.9 +31.1
03 23.05 ЮВ 8 15 км мгла 9/1 600 м
[Cu Sc Cs]
+27.7 +25.3 87 +40 +40 очень
душно
1014.4 1014.2
06 23.05 ЮВ 6 20 км мгла 8/3 660 м
[Cu Sc Ac lent Ci sp]
+27.6 +22.8 75 +37 +37 очень
душно
1013.6 1013.4 +24.9 +31.1
09 23.05 ЮВ 7 20 км мгла 6/1 660 м
[Cu Sc Ci sp]
+27.2 +25.2 89 +39 +39 очень
душно
1013.1 1012.9
12 23.05 В 6 20 км мгла 9/1 660 м
[Cu Sc Cs]
+27.6 +22.8 75 +37 +37 очень
душно
1014.8 1014.6 +26.7 +31.1
15 23.05 ЮВ 8 22 км мгла 9/1 600 м
[Cu Sc Ac trans Cs]
+29.9 +25.4 77 +44 +45 опасность
перегрева
1016.0 1015.8
18 23.05 ЮВ 11 22 км мгла 9/1 540 м
[Cu Sc Ac trans Ci sp]
+31.4 +23.7 64 +43 +43 опасность
перегрева
1014.5 1014.3 +26.7 +31.4
21 23.05 ЮВ 10 22 км мгла 9/1 540 м
[Cb cap Ac trans Cs]
+30.3 +25.4 75 +44 +44 опасность
перегрева
1013.0 1012.8
00 24.05 В 7 22 км мгла 8/1 600 м
[Cu Sc Ac lent Ci sp]
+28.9 +22.2 67 +38 +38 очень
душно
1014.0 1013.8 +26.7 +31.8
03 24.05 ЮВ 8 22 км мгла 9/3 600 м
[Cu Sc Ac lent Ci sp]
+28.3 +23.5 75 +38 +38 очень
душно
1015.1 1014.9
06 24.05 В 6 22 км мгла 4/3 660 м
[Cu Sc Ac lent Ci sp]
+27.8 +22.4 72 +36 +36 очень
душно
1014.1 1013.9 +26.7 +31.8
09 24.05 СВ 2 22 км мгла 4/1 660 м
[Cu Sc Ac trans Ci fib]
+26.6 +24.4 88 +37 +37 очень
душно
1014.4 1013.5
12 24.05 В 6 22 км осадки на расстоянии 8/1 660 м
[Cu Sc Ac lent Ci fib]
+27.8 +22.6 73 +37 +37 очень
душно
1015.0 1014.8 +25.6 +31.8
15 24.05 ЮВ 9 22 км мгла 9/1 660 м
[Cu hum Ac As Ci sp]
+30.0 +25.7 78 +45 +45 опасность
перегрева
1015.6 1015.4
18 24.05 ЮВ 11 30 км мгла 9/1 660 м
[Cb cap Ac As Ci sp]
+31.0 +24.2 67 +43 +43 опасность
перегрева
1014.3 1014.1 +25.6 +31.4
21 24.05 ЮВ 10 20 км мгла 6/1 660 м
[Cu med, cong Ac cuf Ci ing]
+30.1 +25.8 78 +45 +45 опасность
перегрева
1012.6 1012.4
00 25.05 ЮВ 8 20 км мгла 4/1 660 м
[Cu Sc Ac As Ci sp]
+28.9 +23.7 74 +40 +40 очень
душно
1013.4 1013.2 +25.6 +31.4
03 25.05 ЮВ 6 20 км мгла 8/5 660 м
[Cu Sc Ac As Ci sp]
+28.3 +25.0 82 +41 +41 опасность
перегрева
1014.9 1014.7
06 25.05 ЮВ 6 20 км мгла 4/1 660 м
[Cu Sc Ac As Ci fib]
+28.0 +23.2 75 +38 +38 очень
душно
1013.1 1012.9 +25.6 +31.4
09 25.05 ЮВ 7 20 км мгла 8/1 660 м
[Cu Sc Ac As Ci sp]
+27.5 +25.8 90 +41 +41 опасность
перегрева
1011.9 1011.7
12 25.05 ЮВ 7 20 км осадки на расстоянии 9/4 600 м
[Cu Sc Ac As Ci fib]
+28.8 +23.9 75 +40 +40 очень
душно
1013.1 1012.9 +27.1 +31.4
15 25.05 ЮВ 10 22 км мгла 5/1 660 м
[Cu Sc Ac lent Ci sp]
+30.2 +26.1 79 +46 +46 опасность
перегрева
1013.4 1013.2
18 25.05 ЮВ 12 20 км мгла 5/3 600 м
[Cb cap Ac lent Cc]
+30.8 +24.6 70 +44 +44 опасность
перегрева
1012.6 1012.4 +27.1 +31.6
21 25.05 ЮВ 11 20 км мгла 6/1 600 м
[Cu Sc Ac trans Ci fib]
+30.6 +26.1 77 +46 +46 опасность
перегрева
1010.7 1010.5
00 26.05 ЮВ 9 20 км мгла 9/1 660 м
[Cu Sc Ac trans Ci sp]
+28.7 +24.0 76 +40 +40 очень
душно
1011.8 1011.6 +27.1 +31.6
03 26.05 ЮВ 8 20 км мгла 9/1 660 м
[Cu Sc Cs]
+28.1 +26.4 91 +43 +43 опасность
перегрева
1012.6 1012.4
06 26.05 ЮВ 9 18 км мгла 9/1 660 м
[Cu hum Ac trans Cs]
+28.0 +23.9 78 +39 +39 очень
душно
1010.8 1010.6 +27.1 +31.6
09 26.05 ЮВ 9 18 км мгла 6/1 660 м
[Cu Sc Ac trans Cs]
+27.1 +27.1 100 +43 +43 опасность
перегрева
1009.7 1009.5
12 26.05 ЮВ 10 14 км в посл. час ливневой дождь 9/1 660 м
[Cu hum Ac As Cs]
+28.0 +24.7 82 +40 +40 очень
душно
1010.8 1010.6 +26.8 +31.6 0.0
15 26.05 ЮВ 10 14 км осадки на расстоянии 9/3 540 м
[Cu Sc Ac lent Cs]
+30.3 +27.5 85 +49 +49 опасность
перегрева
1012.1 1011.8
18 26.05 ЮВ 10 18 км мгла 9/3 540 м
[Cu Sc Cs]
+31.1 +25.1 70 +45 +45 опасность
перегрева
1011.6 1011.4 +26.8 +31.5
21 26.05 ЮВ 9 18 км осадки на расстоянии {ливн. осадки} 9/3 600 м
[Cu Sc Cs]
+29.6 +24.4 74 +42 +42 опасность
перегрева
1010.2 1010.0
00 27.05 ЮВ 8 18 км мгла {ливн. осадки} 8/1 600 м
[Cu Sc Ac lent Ci fib]
+28.3 +24.6 80 +40 +40 очень
душно
1010.8 1010.6 +26.8 +31.5 0.5
03 27.05 ЮВ 8 18 км мгла {дождь} 9/8 600 м
[Cu Sc Ac As Ci fib]
+27.4 +23.4 79 +37 +37 очень
душно
1012.8 1012.6

 

Местоположение метеостанции Kingston (Ямайка): широта 17.93 долгота -76.78 высота над уровнем моря 14 м.

В архиве по умолчанию представлена погода в Kingston за последнюю неделю. Архивные данные за месяц целиком и за предыдущие месяцы, начиная с января 2011 года, Вы можете получить, выбрав интересующий диапазон дат из раскрывающегося списка и нажав кнопку "Ввод!".


*Определитесь, кто Вы:
робот инопланетянин человек

Внимание! Время в таблицах - всемирное. Для получения местного времени необходимо прибавить поправку, которая в Kingston равна -5 ч.

Смотрите также архив погоды в соседних городах и на ближайших метеорологических станциях:

Погода в Montego Bay (Ямайка) (135 км)
Погода в Cabo Cruz (Куба) (236 км)
Погода в Santiago de Cuba (Куба) (247 км)
Погода в Santiago de Cuba (Куба) (267 км)
Погода в Santa Cruz Del Sur (Куба) (336 км)
Погода в Puerto Padre (Куба) (364 км)
Погода в Cabo Lurecia (Куба) (370 км)
Погода в Punta Lucrecia (Куба) (370 км)
Погода в Punta de Maisi (Куба) (378 км)
Погода в Camaguey (Куба) (402 км)

Пояснения к столбцам:

Ветер - указаны скорость ветра в м/с - средняя за 10 мин, порывы в срок и между сроками (в фигурных скобках) и направление, откуда дует ветер: С - северный, СВ - северо-восточный, В - восточный, ЮВ - юго-восточный, Ю - южный, ЮЗ - юго-западный, З - западный, СЗ - северо-западный.
Видимость - горизонтальная дальность видимости в метрах или километрах. При видимости от 1 до 10 км при отсутствии осадков обычно наблюдается дымка, при ухудшении видимости до 1 км и менее - туман. В сухую погоду видимость может ухудшаться дымом, пылью или мглою.
Явления - указаны атмосферные явления, наблюдавшиеся в срок или в последний час перед сроком; фигурными скобками обозначены явления, наблюдавшиеся между сроками (за 1-3 часа до срока); квадратными скобками обозначены град или гололедные отложения с указанием их диаметра в мм.
Облачность - указаны через наклонную черту общая и нижняя облачность в баллах и высота нижней границы облаков в метрах; квадратными скобками обозначены формы облаков: Ci - перистые, Cs - перисто-слоистые, Cc - перисто-кучевые, Ac - высококучевые, As - высокослоистые, Sc - слоисто-кучевые, Ns - слоисто-дождевые, Cu - кучевые, Cb - кучево-дождевые. Подробнее классификацию облаков см. в Атласе облаков (PDF).
T - Температура воздуха - температура, измеренная на высоте 2 м над землей.
Td - Температура точки росы - температура, при понижении до которой содержащийся в воздухе водяной пар достигнет насыщения.
f - Относительная влажность воздуха - влажноcть воздуха, измеренная на высоте 2 м над землей.
Te - Эффективная температура - температура, которую ощущает одетый по сезону человек в тени. Характеристика душности погоды. При расчете учитывается влияние влажности воздуха и скорости ветра на теплоощущения человека.
Tes - Эффективная температура на солнце - температура, которую ощущает человек, с поправкой на солнечный нагрев. Характеристика знойности погоды. Зависит от высоты солнца над горизонтом, облачности и скорости ветра. Ночью, в пасмурную погоду, а также при ветре 12 м/с и более поправка равна нулю.
P - Атмосферное давление - приведенное к уровню моря атмосферное давление.
Po - Атмосферное давление - измеренное на уровне метеостанции атмосферное давление.
Tmin - Минимальная температура - минимум температуры воздуха на высоте 2 м над землей.
Tmax - Максимальная температура - максимум температуры воздуха на высоте 2 м над землей.
R - Количество осадков - Количество выпавших осадков за период времени, мм. При наведении курсора мыши на число - период времени, за который выпало указанное количество осадков.
R24 - Количество осадков - Количество выпавших осадков за 24 часа, мм.
S - Снежный покров - Высота снежного покрова, см. При наведении курсора мыши на число - состояние снежного покрова и степень покрытия местности в баллах.